EW4670 Weather Reports


Display with metric or nautical units.
time (UTC)temp
F
wind
direction
speed
MPH
gust
MPH
rain 1hr
in
rain 24hr
in
rain mn
in
humidity
%
barometer
mb
20260504191556 69 248 1.0 3.0 0.00 0.00 0.00 31 1015.4
20260504190535 70 227 0.0 3.0 0.00 0.00 0.00 30 1015.4
20260504185540 71 233 1.0 3.0 0.00 0.00 0.00 29 1015.3
20260504184534 71 216 1.0 4.0 0.00 0.00 0.00 29 1015.2
20260504183534 72 234 1.0 3.0 0.00 0.00 0.00 28 1015.2
20260504182533 72 245 0.0 1.0 0.00 0.00 0.00 27 1015.0
20260504181534 73 228 1.0 5.0 0.00 0.00 0.00 26 1015.0
20260504180532 74 241 1.0 3.0 0.00 0.00 0.00 26 1015.0
20260504175532 75 227 1.0 4.0 0.00 0.00 0.00 25 1014.9
20260504174532 75 221 2.0 7.0 0.00 0.00 0.00 24 1014.9
20260504173532 76 221 2.0 5.0 0.00 0.00 0.00 24 1014.9
20260504172631 77 222 2.0 8.0 0.00 0.00 0.00 23 1014.8
20260504171530 77 226 3.0 7.0 0.00 0.00 0.00 22 1014.9
20260504170530 78 227 2.0 8.0 0.00 0.00 0.00 22 1014.9
20260504150525 79 203 6.0 11.0 0.00 0.00 0.00 21 1015.4
20260504140521 79 209 5.0 15.0 0.00 0.00 0.00 20 1015.8
20260504130519 78 227 8.0 16.0 0.00 0.00 0.00 22 1016.6
20260504110543 76 206 3.0 12.0 0.00 0.00 0.00 25 1018.0
20260504100601 75 196 3.0 10.0 0.00 0.00 0.00 26 1018.8
20260504081537 68 203 4.0 10.0 0.00 0.00 0.00 30 1019.8
20260504080536 67 194 7.0 15.0 0.00 0.00 0.00 31 1019.8
20260504050627 53 203 0.0 1.0 0.00 0.00 0.00 60 1019.8
20260504045527 52 0.0 0.0 0.00 0.00 0.00 62 1019.6
20260504044557 52 278 1.0 3.0 0.00 0.00 0.00 62 1019.5
20260504043526 52 315 0.0 1.0 0.00 0.00 0.00 61 1019.5
20260504042626 52 68 0.0 1.0 0.00 0.00 0.00 62 1019.5
20260504041526 51 45 1.0 3.0 0.00 0.00 0.00 64 1019.4
20260504040524 50 23 0.0 1.0 0.00 0.00 0.00 66 1019.5
20260504035624 49 0.0 0.0 0.00 0.00 0.00 69 1019.3
20260504034853 49 338 0.0 1.0 0.00 0.00 0.00 68 1019.3
20260504033554 49 300 0.0 1.0 0.00 0.00 0.00 67 1019.2
20260504032603 49 0.0 0.0 0.00 0.00 0.00 66 1019.2
20260504031633 49 248 0.0 1.0 0.00 0.00 0.00 67 1019.2
20260504030551 49 0.0 0.0 0.00 0.00 0.00 67 1019.1
20260504025521 49 0.0 0.0 0.00 0.00 0.00 67 1019.1
20260504024550 50 0.0 0.0 0.00 0.00 0.00 65 1019.1
20260504023551 50 225 0.0 1.0 0.00 0.00 0.00 64 1019.1
20260504022550 51 0.0 0.0 0.00 0.00 0.00 63 1019.0
20260504021520 51 0.0 0.0 0.00 0.00 0.00 62 1019.0
20260504020609 51 0.0 0.0 0.00 0.00 0.00 62 1019.1
20260504015609 51 0.0 0.0 0.00 0.00 0.00 62 1019.2
20260504014638 51 0.0 0.0 0.00 0.00 0.00 61 1019.1
20260504013548 52 248 0.0 1.0 0.00 0.00 0.00 60 1019.1
20260504012617 52 0.0 0.0 0.00 0.00 0.00 60 1019.2
20260504011547 52 0.0 1.0 0.00 0.00 0.00 60 1019.2
20260504010546 52 0.0 0.0 0.00 0.00 0.00 59 1019.1
20260504005547 52 248 0.0 1.0 0.00 0.00 0.00 59 1019.2
20260504004546 53 0.0 0.0 0.00 0.00 0.00 58 1019.1
20260504003606 53 0.0 0.0 0.00 0.00 0.00 57 1019.1
20260504002544 53 0.0 0.0 0.00 0.00 0.00 56 1019.1
20260504001545 54 225 0.0 1.0 0.00 0.00 0.00 55 1019.1
20260504000544 55 225 0.0 1.0 0.00 0.00 0.00 52 1019.2
20260503235544 56 0.0 0.0 0.00 0.00 0.00 51 1019.1
20260503234543 56 0.0 0.0 0.00 0.00 0.00 50 1019.1
20260503233543 56 0.0 0.0 0.00 0.00 0.00 49 1019.1
20260503232601 57 165 0.0 1.0 0.00 0.00 0.00 48 1019.2
20260503231611 57 270 0.0 1.0 0.00 0.00 0.00 47 1019.2
20260503230540 58 270 1.0 3.0 0.00 0.00 0.00 46 1019.2
20260503225541 58 270 1.0 3.0 0.00 0.00 0.00 46 1019.3
20260503224540 58 248 0.0 1.0 0.00 0.00 0.00 45 1019.4
20260503223540 58 249 1.0 4.0 0.00 0.00 0.00 46 1019.4
20260503222539 58 0.0 0.0 0.00 0.00 0.00 46 1019.4
20260503221614 58 290 0.0 1.0 0.00 0.00 0.00 46 1019.4
20260503220538 58 236 0.0 1.0 0.00 0.00 0.00 46 1019.5
20260503215538 59 225 0.0 1.0 0.00 0.00 0.00 45 1019.5
20260503214537 59 203 0.0 1.0 0.00 0.00 0.00 44 1019.4
20260503213537 59 90 0.0 1.0 0.00 0.00 0.00 45 1019.5
20260503212617 59 315 0.0 1.0 0.00 0.00 0.00 45 1019.4
20260503211537 59 203 0.0 1.0 0.00 0.00 0.00 44 1019.4
20260503210606 60 0.0 0.0 0.00 0.00 0.00 44 1019.3
20260503205555 60 338 0.0 1.0 0.00 0.00 0.00 43 1019.4
20260503204535 60 23 0.0 1.0 0.00 0.00 0.00 43 1019.3
20260503203536 61 0.0 0.0 0.00 0.00 0.00 41 1019.2
20260503202535 62 270 0.0 1.0 0.00 0.00 0.00 41 1019.2
20260503201605 63 270 0.0 1.0 0.00 0.00 0.00 40 1019.2
20260503200534 63 144 0.0 1.0 0.00 0.00 0.00 38 1019.1
20260503195532 64 193 0.0 3.0 0.00 0.00 0.00 37 1019.1
20260503194531 65 155 1.0 4.0 0.00 0.00 0.00 36 1019.0
20260503193552 65 139 1.0 3.0 0.00 0.00 0.00 36 1019.0
20260503192531 65 159 1.0 3.0 0.00 0.00 0.00 35 1018.9